PIMOHWEATHER Station Historical Data
Daily Summary for August 06, 2020 Units:  Metric    English   Both
Daily Weekly Monthly Yearly
  High: Low: Average:
Temperature: 33.0 °C 25.0 °C 28 °C
Dew Point: 26.0 °C 23.0 °C 24.2 °C
Humidity: 95% 57% 81%
Wind Speed: 32km/h 0km/h 11km/h
Wind Gust: 44km/h - -
Wind- - SSE
Pressure: 1014.2 hPa 1010.8 hPa -
Precipitation: 35.99 mm    
 
 
Tabular Data for August 06, 2020
Time Temperature Dew Point Pressure Wind Wind Speed Wind Gust Humidity Rainfall Rate (Hourly) solar
00:04 28.0 °C 23.0 °C 1013.2 hPa NW 3 km/h 4 km/h 76% 0.00 mm 0.00 W/m2
00:09 28.0 °C 24.0 °C 1013.2 hPa NW 5 km/h 8 km/h 76% 0.00 mm 0.00 W/m2
00:14 28.0 °C 24.0 °C 1013.3 hPa NW 5 km/h 8 km/h 77% 0.00 mm 0.00 W/m2
00:19 28.0 °C 24.0 °C 1013.1 hPa NW 5 km/h 8 km/h 77% 0.00 mm 0.00 W/m2
00:24 28.0 °C 23.0 °C 1013.2 hPa NW 5 km/h 8 km/h 77% 0.00 mm 0.00 W/m2
00:29 28.0 °C 23.0 °C 1013.2 hPa North 8 km/h 12 km/h 77% 0.00 mm 0.00 W/m2
00:34 28.0 °C 23.0 °C 1013.1 hPa North 6 km/h 8 km/h 77% 0.00 mm 0.00 W/m2
00:39 28.0 °C 23.0 °C 1013.1 hPa NNE 6 km/h 8 km/h 77% 0.00 mm 0.00 W/m2
00:44 28.0 °C 23.0 °C 1013.1 hPa North 3 km/h 4 km/h 77% 0.00 mm 0.00 W/m2
00:49 28.0 °C 23.0 °C 1013.0 hPa North 4 km/h 4 km/h 77% 0.00 mm 0.00 W/m2
00:54 28.0 °C 23.0 °C 1012.8 hPa North 8 km/h 8 km/h 77% 0.00 mm 0.00 W/m2
00:59 28.0 °C 23.0 °C 1012.9 hPa North 4 km/h 4 km/h 77% 0.00 mm 0.00 W/m2
01:04 28.0 °C 23.0 °C 1013.0 hPa Calm     76% 0.00 mm 0.00 W/m2
01:09 28.0 °C 23.0 °C 1013.1 hPa North 4 km/h 4 km/h 76% 0.00 mm 0.00 W/m2
01:14 28.0 °C 23.0 °C 1012.9 hPa North 3 km/h 4 km/h 76% 0.00 mm 0.00 W/m2
01:19 28.0 °C 23.0 °C 1013.0 hPa North 4 km/h 4 km/h 77% 0.00 mm 0.00 W/m2
01:24 28.0 °C 23.0 °C 1012.9 hPa North 5 km/h 8 km/h 77% 0.00 mm 0.00 W/m2
01:29 28.0 °C 23.0 °C 1012.9 hPa North 5 km/h 8 km/h 77% 0.00 mm 0.00 W/m2
01:30 28.0 °C 23.0 °C 1012.7 hPa Calm     77% 0.00 mm 0.00 W/m2
01:39 28.0 °C 23.0 °C 1012.6 hPa North 7 km/h 8 km/h 77% 0.00 mm 0.00 W/m2
01:44 28.0 °C 24.0 °C 1012.6 hPa NNW 10 km/h 12 km/h 78% 0.00 mm 0.00 W/m2
01:49 28.0 °C 24.0 °C 1012.7 hPa North 15 km/h 16 km/h 78% 0.00 mm 0.00 W/m2
01:54 28.0 °C 23.0 °C 1012.9 hPa NNE 13 km/h 16 km/h 78% 0.00 mm 0.00 W/m2
01:59 27.0 °C 24.0 °C 1012.8 hPa North 5 km/h 8 km/h 79% 0.00 mm 0.00 W/m2
02:04 27.0 °C 23.0 °C 1012.9 hPa North 13 km/h 16 km/h 79% 0.00 mm 0.00 W/m2
02:09 27.0 °C 23.0 °C 1012.9 hPa NNE 12 km/h 16 km/h 79% 0.00 mm 0.00 W/m2
02:14 27.0 °C 23.0 °C 1012.9 hPa North 12 km/h 16 km/h 79% 0.00 mm 0.00 W/m2
02:19 27.0 °C 23.0 °C 1012.9 hPa North 14 km/h 16 km/h 79% 0.00 mm 0.00 W/m2
02:24 27.0 °C 23.0 °C 1012.9 hPa North 13 km/h 16 km/h 79% 0.00 mm 0.00 W/m2
02:29 27.0 °C 24.0 °C 1012.9 hPa NE 9 km/h 12 km/h 79% 0.00 mm 0.00 W/m2
02:34 28.0 °C 23.0 °C 1012.9 hPa NNE 12 km/h 16 km/h 78% 0.00 mm 0.00 W/m2
02:39 28.0 °C 23.0 °C 1012.7 hPa NNE 14 km/h 16 km/h 78% 0.00 mm 0.00 W/m2
02:44 28.0 °C 23.0 °C 1012.8 hPa NNE 13 km/h 16 km/h 78% 0.00 mm 0.00 W/m2
02:49 28.0 °C 23.0 °C 1012.8 hPa NNE 14 km/h 16 km/h 78% 0.00 mm 0.00 W/m2
02:54 28.0 °C 23.0 °C 1012.8 hPa NE 8 km/h 12 km/h 78% 0.00 mm 0.00 W/m2
02:59 28.0 °C 23.0 °C 1012.9 hPa NE 6 km/h 8 km/h 77% 0.00 mm 0.00 W/m2
03:04 28.0 °C 23.0 °C 1012.7 hPa ENE 4 km/h 4 km/h 76% 0.00 mm 0.00 W/m2
03:09 28.0 °C 24.0 °C 1012.6 hPa ENE 5 km/h 8 km/h 77% 0.00 mm 0.00 W/m2
03:14 28.0 °C 23.0 °C 1012.7 hPa NE 4 km/h 8 km/h 77% 0.00 mm 0.00 W/m2
03:24 28.0 °C 23.0 °C 1012.6 hPa NE 3 km/h 4 km/h 77% 0.00 mm 0.00 W/m2
03:29 28.0 °C 23.0 °C 1012.7 hPa NE 1 km/h 4 km/h 77% 0.00 mm 0.00 W/m2
03:34 28.0 °C 24.0 °C 1012.9 hPa Calm   4 km/h 77% 0.00 mm 0.00 W/m2
03:39 28.0 °C 23.0 °C 1012.9 hPa NE 4 km/h 4 km/h 76% 0.00 mm 0.00 W/m2
03:44 28.0 °C 24.0 °C 1013.0 hPa Calm     77% 0.00 mm 0.00 W/m2
03:49 28.0 °C 24.0 °C 1013.0 hPa Calm     77% 0.00 mm 0.00 W/m2
03:54 28.0 °C 24.0 °C 1013.1 hPa NE 5 km/h 8 km/h 78% 0.00 mm 0.00 W/m2
03:59 28.0 °C 24.0 °C 1013.1 hPa North 8 km/h 8 km/h 79% 0.00 mm 0.00 W/m2
04:04 27.0 °C 24.0 °C 1013.0 hPa NNW 10 km/h 12 km/h 80% 0.00 mm 0.00 W/m2
04:09 27.0 °C 24.0 °C 1013.0 hPa NW 8 km/h 8 km/h 81% 0.00 mm 0.00 W/m2
04:14 27.0 °C 24.0 °C 1013.0 hPa North 8 km/h 8 km/h 81% 0.00 mm 0.00 W/m2
04:19 27.0 °C 24.0 °C 1013.0 hPa NNW 10 km/h 12 km/h 82% 0.00 mm 0.00 W/m2
04:24 27.0 °C 24.0 °C 1013.1 hPa NNW 9 km/h 12 km/h 82% 0.00 mm 0.00 W/m2
04:29 27.0 °C 24.0 °C 1012.7 hPa NNE 7 km/h 8 km/h 83% 0.00 mm 0.00 W/m2
04:34 27.0 °C 24.0 °C 1012.8 hPa NNE 12 km/h 12 km/h 83% 0.00 mm 0.00 W/m2
04:39 27.0 °C 24.0 °C 1012.7 hPa NNE 9 km/h 12 km/h 83% 0.00 mm 0.00 W/m2
04:44 27.0 °C 24.0 °C 1012.6 hPa NNE 12 km/h 12 km/h 83% 0.00 mm 0.00 W/m2
04:49 27.0 °C 24.0 °C 1012.8 hPa NNE 8 km/h 12 km/h 83% 0.00 mm 0.00 W/m2
04:54 27.0 °C 24.0 °C 1012.6 hPa NNE 15 km/h 20 km/h 83% 0.00 mm 0.00 W/m2
04:58 27.0 °C 24.0 °C 1012.6 hPa NNE 12 km/h 16 km/h 84% 0.00 mm 0.00 W/m2
05:09 27.0 °C 24.0 °C 1012.6 hPa NE 4 km/h 8 km/h 84% 0.00 mm 0.00 W/m2
05:14 27.0 °C 24.0 °C 1012.5 hPa NE 8 km/h 8 km/h 85% 0.00 mm 0.00 W/m2
05:19 26.0 °C 24.0 °C 1012.7 hPa NNE 6 km/h 8 km/h 84% 0.00 mm 0.00 W/m2
05:24 26.0 °C 24.0 °C 1012.7 hPa NNW 9 km/h 12 km/h 85% 0.00 mm 0.00 W/m2
05:29 26.0 °C 24.0 °C 1012.7 hPa NW 5 km/h 8 km/h 86% 0.00 mm 0.00 W/m2
05:34 26.0 °C 24.0 °C 1012.6 hPa NW 4 km/h 4 km/h 85% 0.00 mm 0.00 W/m2
05:39 26.0 °C 24.0 °C 1012.7 hPa NW 4 km/h 4 km/h 85% 0.00 mm 1.22 W/m2
05:44 26.0 °C 24.0 °C 1012.7 hPa NNW 10 km/h 12 km/h 86% 0.00 mm 3.79 W/m2
05:49 26.0 °C 24.0 °C 1012.8 hPa NNW 9 km/h 12 km/h 86% 0.00 mm 7.70 W/m2
05:54 26.0 °C 24.0 °C 1012.8 hPa North 10 km/h 12 km/h 86% 0.00 mm 11.62 W/m2
05:59 26.0 °C 24.0 °C 1012.8 hPa NNE 9 km/h 12 km/h 86% 0.00 mm 16.88 W/m2
06:04 26.0 °C 24.0 °C 1012.8 hPa NNW 11 km/h 16 km/h 86% 0.00 mm 19.08 W/m2
06:09 26.0 °C 24.0 °C 1012.9 hPa North 13 km/h 16 km/h 86% 0.00 mm 22.02 W/m2
06:14 26.0 °C 24.0 °C 1012.8 hPa NNW 10 km/h 12 km/h 86% 0.00 mm 24.71 W/m2
06:19 26.0 °C 24.0 °C 1012.8 hPa NNE 8 km/h 8 km/h 86% 0.00 mm 28.63 W/m2
06:24 26.0 °C 24.0 °C 1013.0 hPa North 9 km/h 12 km/h 86% 0.00 mm 35.48 W/m2
06:29 26.0 °C 24.0 °C 1012.8 hPa NNE 8 km/h 8 km/h 86% 0.00 mm 41.96 W/m2
06:34 26.0 °C 24.0 °C 1012.8 hPa NNW 11 km/h 12 km/h 86% 0.00 mm 49.42 W/m2
06:39 26.0 °C 24.0 °C 1012.8 hPa NW 10 km/h 12 km/h 86% 0.00 mm 58.48 W/m2
06:44 26.0 °C 24.0 °C 1012.8 hPa NW 4 km/h 4 km/h 85% 0.00 mm 70.22 W/m2
06:49 26.0 °C 24.0 °C 1012.7 hPa NW 8 km/h 8 km/h 85% 0.00 mm 72.42 W/m2
06:54 26.0 °C 24.0 °C 1012.7 hPa NW 8 km/h 8 km/h 85% 0.00 mm 70.22 W/m2
06:59 26.0 °C 24.0 °C 1012.8 hPa NW 10 km/h 12 km/h 85% 0.00 mm 76.70 W/m2
07:04 26.0 °C 24.0 °C 1012.9 hPa NW 12 km/h 12 km/h 85% 0.00 mm 123.19 W/m2
07:09 26.0 °C 24.0 °C 1012.7 hPa North 13 km/h 16 km/h 84% 0.00 mm 173.47 W/m2
07:14 27.0 °C 24.0 °C 1012.7 hPa NNE 15 km/h 16 km/h 84% 0.00 mm 175.19 W/m2
07:19 27.0 °C 24.0 °C 1012.7 hPa NNW 13 km/h 16 km/h 84% 0.00 mm 205.52 W/m2
07:24 27.0 °C 24.0 °C 1012.6 hPa North 9 km/h 12 km/h 83% 0.00 mm 229.87 W/m2
07:29 28.0 °C 24.0 °C 1012.6 hPa NE 9 km/h 12 km/h 82% 0.00 mm 250.30 W/m2
07:34 28.0 °C 24.0 °C 1012.7 hPa North 9 km/h 12 km/h 80% 0.00 mm 278.93 W/m2
07:39 28.0 °C 24.0 °C 1012.7 hPa NNE 15 km/h 16 km/h 78% 0.00 mm 304.86 W/m2
07:44 28.0 °C 24.0 °C 1012.7 hPa NNE 14 km/h 16 km/h 78% 0.00 mm 335.32 W/m2
07:49 28.0 °C 24.0 °C 1012.9 hPa North 15 km/h 16 km/h 77% 0.00 mm 350.00 W/m2
07:54 29.0 °C 24.0 °C 1012.7 hPa NNW 13 km/h 20 km/h 76% 0.00 mm 395.64 W/m2
07:59 29.0 °C 24.0 °C 1012.7 hPa NE 15 km/h 20 km/h 75% 0.00 mm 402.49 W/m2
08:04 29.0 °C 24.0 °C 1012.6 hPa NNE 8 km/h 12 km/h 74% 0.00 mm 442.00 W/m2
08:09 29.0 °C 24.0 °C 1012.7 hPa North 11 km/h 16 km/h 73% 0.00 mm 477.60 W/m2
08:14 30.0 °C 24.0 °C 1012.7 hPa North 10 km/h 12 km/h 72% 0.00 mm 523.60 W/m2
08:19 30.0 °C 24.0 °C 1012.5 hPa North 16 km/h 16 km/h 71% 0.00 mm 544.40 W/m2
08:24 30.0 °C 24.0 °C 1012.5 hPa NNW 20 km/h 24 km/h 70% 0.00 mm 575.59 W/m2
08:29 30.0 °C 24.0 °C 1012.5 hPa NW 16 km/h 20 km/h 69% 0.00 mm 576.45 W/m2
08:34 30.0 °C 24.0 °C 1012.4 hPa NNE 22 km/h 24 km/h 69% 0.00 mm 584.77 W/m2
08:39 31.0 °C 23.0 °C 1012.5 hPa NNE 10 km/h 12 km/h 67% 0.00 mm 664.16 W/m2
08:44 31.0 °C 24.0 °C 1012.5 hPa ENE 13 km/h 16 km/h 65% 0.00 mm 705.26 W/m2
08:49 31.0 °C 24.0 °C 1012.6 hPa ENE 9 km/h 12 km/h 65% 0.00 mm 731.82 W/m2
08:54 31.0 °C 24.0 °C 1012.4 hPa ENE 8 km/h 12 km/h 64% 0.00 mm 698.41 W/m2
08:59 31.0 °C 24.0 °C 1012.5 hPa NE 20 km/h 24 km/h 66% 0.00 mm 645.45 W/m2
09:04 31.0 °C 24.0 °C 1012.6 hPa NNE 18 km/h 20 km/h 66% 0.00 mm 674.93 W/m2
09:09 31.0 °C 24.0 °C 1012.7 hPa North 14 km/h 16 km/h 65% 0.00 mm 694.50 W/m2
09:14 31.0 °C 24.0 °C 1012.7 hPa NNE 15 km/h 20 km/h 65% 0.00 mm 722.64 W/m2
09:19 31.0 °C 24.0 °C 1012.6 hPa NNE 19 km/h 20 km/h 65% 0.00 mm 760.44 W/m2
09:24 31.0 °C 24.0 °C 1012.6 hPa NE 18 km/h 24 km/h 64% 0.00 mm 717.87 W/m2
09:29 31.0 °C 24.0 °C 1012.6 hPa NE 13 km/h 16 km/h 64% 0.00 mm 720.92 W/m2
09:34 31.0 °C 24.0 °C 1012.6 hPa NNW 17 km/h 20 km/h 65% 0.00 mm 734.87 W/m2
09:39 31.0 °C 23.0 °C 1012.5 hPa NNE 16 km/h 20 km/h 65% 0.00 mm 835.43 W/m2
09:44 31.0 °C 24.0 °C 1012.5 hPa NNE 18 km/h 24 km/h 65% 0.00 mm 277.58 W/m2
09:49 31.0 °C 23.0 °C 1012.6 hPa NE 20 km/h 24 km/h 64% 0.00 mm 894.52 W/m2
09:54 32.0 °C 24.0 °C 1012.4 hPa NNE 8 km/h 8 km/h 63% 0.00 mm 884.49 W/m2
09:59 32.0 °C 24.0 °C 1012.4 hPa North 16 km/h 20 km/h 63% 0.00 mm 939.17 W/m2
10:04 32.0 °C 24.0 °C 1012.3 hPa North 22 km/h 28 km/h 64% 0.00 mm 910.92 W/m2
10:09 32.0 °C 24.0 °C 1012.3 hPa North 19 km/h 20 km/h 66% 0.00 mm 769.12 W/m2
10:14 31.0 °C 24.0 °C 1012.4 hPa NNW 31 km/h 36 km/h 66% 0.00 mm 857.21 W/m2
10:19 31.0 °C 24.0 °C 1012.4 hPa NNW 22 km/h 28 km/h 67% 0.00 mm 913.61 W/m2
10:24 32.0 °C 24.0 °C 1012.3 hPa NNW 26 km/h 32 km/h 64% 0.00 mm 891.83 W/m2
10:29 33.0 °C 25.0 °C 1012.2 hPa NNW 21 km/h 24 km/h 64% 0.00 mm 875.80 W/m2
10:34 33.0 °C 24.0 °C 1012.1 hPa NE 9 km/h 12 km/h 62% 0.00 mm 866.26 W/m2
10:39 33.0 °C 24.0 °C 1012.2 hPa NNE 17 km/h 24 km/h 57% 0.00 mm 727.04 W/m2
10:44 33.0 °C 24.0 °C 1012.4 hPa NNE 28 km/h 32 km/h 62% 0.00 mm 752.61 W/m2
10:49 32.0 °C 24.0 °C 1012.2 hPa North 22 km/h 28 km/h 62% 0.00 mm 284.06 W/m2
10:54 32.0 °C 24.0 °C 1012.2 hPa North 25 km/h 28 km/h 62% 0.00 mm 207.36 W/m2
10:59 32.0 °C 24.0 °C 1012.4 hPa ENE 8 km/h 12 km/h 62% 0.00 mm 189.49 W/m2
11:04 32.0 °C 24.0 °C 1012.2 hPa South 10 km/h 16 km/h 62% 0.00 mm 237.70 W/m2
11:09 32.0 °C 24.0 °C 1012.2 hPa NNE 15 km/h 24 km/h 63% 0.00 mm 213.35 W/m2
11:14 32.0 °C 25.0 °C 1012.2 hPa South 26 km/h 32 km/h 67% 0.00 mm 123.19 W/m2
11:19 31.0 °C 25.0 °C 1012.2 hPa SSW 22 km/h 28 km/h 69% 0.00 mm 62.88 W/m2
11:24 31.0 °C 24.0 °C 1012.2 hPa SSW 17 km/h 24 km/h 69% 0.00 mm 58.48 W/m2
11:29 31.0 °C 25.0 °C 1012.1 hPa SSW 26 km/h 32 km/h 73% 0.00 mm 64.96 W/m2
11:34 30.0 °C 25.0 °C 1012.2 hPa South 26 km/h 28 km/h 79% 7.19 mm 125.27 W/m2
11:39 29.0 °C 25.0 °C 1012.1 hPa SW 10 km/h 16 km/h 79% 7.19 mm 199.04 W/m2
11:44 29.0 °C 25.0 °C 1012.2 hPa SW 10 km/h 12 km/h 80% 7.19 mm 218.61 W/m2
11:49 30.0 °C 25.0 °C 1012.2 hPa WSW 7 km/h 8 km/h 79% 0.00 mm 188.64 W/m2
11:54 30.0 °C 25.0 °C 1012.1 hPa NNE 26 km/h 28 km/h 78% 0.00 mm 112.30 W/m2
11:59 29.0 °C 25.0 °C 1012.2 hPa NE 17 km/h 20 km/h 78% 0.00 mm 287.98 W/m2
12:04 30.0 °C 25.0 °C 1012.1 hPa NE 15 km/h 20 km/h 77% 0.00 mm 392.57 W/m2
12:09 30.0 °C 25.0 °C 1012.1 hPa NNE 18 km/h 24 km/h 75% 0.00 mm 325.78 W/m2
12:14 30.0 °C 24.0 °C 1012.0 hPa North 20 km/h 28 km/h 72% 0.00 mm 1030.19 W/m2
12:19 31.0 °C 24.0 °C 1011.9 hPa North 13 km/h 16 km/h 72% 0.00 mm 1130.88 W/m2
12:24 31.0 °C 25.0 °C 1011.9 hPa NNE 19 km/h 24 km/h 69% 0.00 mm 1000.71 W/m2
12:29 31.0 °C 25.0 °C 1011.7 hPa NNE 23 km/h 32 km/h 69% 0.00 mm 709.18 W/m2
12:34 32.0 °C 25.0 °C 1011.7 hPa NE 10 km/h 16 km/h 68% 0.00 mm 871.03 W/m2
12:39 32.0 °C 25.0 °C 1011.9 hPa NNE 14 km/h 16 km/h 66% 0.00 mm 1005.48 W/m2
12:44 32.0 °C 25.0 °C 1011.7 hPa NNE 21 km/h 24 km/h 66% 0.00 mm 975.14 W/m2
12:49 31.0 °C 25.0 °C 1011.6 hPa NNE 21 km/h 24 km/h 67% 0.00 mm 571.31 W/m2
12:54 32.0 °C 25.0 °C 1011.4 hPa ESE 8 km/h 12 km/h 66% 0.00 mm 562.99 W/m2
12:59 32.0 °C 25.0 °C 1011.3 hPa North 14 km/h 16 km/h 66% 0.00 mm 261.92 W/m2
13:04 32.0 °C 25.0 °C 1011.3 hPa NNW 22 km/h 28 km/h 67% 0.00 mm 186.44 W/m2
13:09 31.0 °C 24.0 °C 1011.2 hPa North 20 km/h 24 km/h 67% 0.00 mm 314.89 W/m2
13:14 32.0 °C 24.0 °C 1011.2 hPa North 19 km/h 24 km/h 67% 0.00 mm 663.18 W/m2
13:19 32.0 °C 24.0 °C 1011.2 hPa NNW 24 km/h 32 km/h 66% 0.00 mm 384.74 W/m2
13:24 32.0 °C 25.0 °C 1011.1 hPa North 29 km/h 32 km/h 66% 0.00 mm 399.06 W/m2
13:29 31.0 °C 24.0 °C 1011.2 hPa NNW 26 km/h 36 km/h 66% 0.00 mm 267.18 W/m2
13:34 31.0 °C 24.0 °C 1011.0 hPa NNW 32 km/h 36 km/h 67% 0.00 mm 107.53 W/m2
13:39 31.0 °C 26.0 °C 1011.1 hPa NNE 31 km/h 44 km/h 79% 12.60 mm 42.45 W/m2
13:44 29.0 °C 26.0 °C 1011.4 hPa NE 24 km/h 32 km/h 89% 45.01 mm 28.63 W/m2
13:49 28.0 °C 26.0 °C 1011.4 hPa NNE 23 km/h 28 km/h 91% 61.19 mm 27.65 W/m2
13:54 27.0 °C 25.0 °C 1011.4 hPa North 31 km/h 40 km/h 93% 61.19 mm 45.87 W/m2
13:59 27.0 °C 25.0 °C 1011.4 hPa NNW 24 km/h 32 km/h 91% 37.80 mm 55.41 W/m2
14:04 27.0 °C 25.0 °C 1011.3 hPa NW 18 km/h 20 km/h 90% 8.99 mm 53.34 W/m2
14:09 27.0 °C 25.0 °C 1011.3 hPa SW 19 km/h 24 km/h 90% 0.00 mm 49.79 W/m2
14:14 27.0 °C 25.0 °C 1011.2 hPa WSW 21 km/h 28 km/h 89% 0.00 mm 35.97 W/m2
14:19 27.0 °C 25.0 °C 1011.3 hPa SW 21 km/h 28 km/h 89% 0.00 mm 41.59 W/m2
14:24 27.0 °C 25.0 °C 1011.3 hPa WSW 22 km/h 28 km/h 89% 0.00 mm 54.19 W/m2
14:29 27.0 °C 24.0 °C 1011.2 hPa SW 15 km/h 16 km/h 86% 5.41 mm 60.68 W/m2
14:34 27.0 °C 25.0 °C 1011.1 hPa SW 14 km/h 20 km/h 88% 12.60 mm 50.28 W/m2
14:39 27.0 °C 25.0 °C 1011.4 hPa SSW 25 km/h 28 km/h 90% 12.60 mm 33.39 W/m2
14:44 26.0 °C 25.0 °C 1011.7 hPa SSW 29 km/h 32 km/h 92% 19.81 mm 32.05 W/m2
14:49 26.0 °C 24.0 °C 1011.9 hPa SSW 28 km/h 40 km/h 94% 45.01 mm 60.68 W/m2
14:54 25.0 °C 24.0 °C 1011.6 hPa SW 22 km/h 28 km/h 95% 55.80 mm 94.56 W/m2
14:59 25.0 °C 25.0 °C 1011.6 hPa SSW 14 km/h 16 km/h 95% 48.59 mm 106.68 W/m2
15:04 26.0 °C 25.0 °C 1011.4 hPa WSW 18 km/h 24 km/h 95% 18.01 mm 114.87 W/m2
15:09 26.0 °C 25.0 °C 1011.2 hPa SW 12 km/h 16 km/h 94% 0.00 mm 119.27 W/m2
15:14 26.0 °C 25.0 °C 1011.2 hPa SSW 15 km/h 20 km/h 94% 0.00 mm 124.41 W/m2
15:19 26.0 °C 25.0 °C 1011.1 hPa SSW 15 km/h 16 km/h 94% 0.00 mm 133.59 W/m2
15:24 26.0 °C 25.0 °C 1011.1 hPa South 13 km/h 16 km/h 94% 0.00 mm 138.36 W/m2
15:29 26.0 °C 25.0 °C 1011.3 hPa SSE 13 km/h 16 km/h 93% 0.00 mm 143.13 W/m2
15:34 27.0 °C 25.0 °C 1011.1 hPa SW 6 km/h 8 km/h 92% 0.00 mm 147.90 W/m2
15:39 26.0 °C 25.0 °C 1010.8 hPa SW 5 km/h 8 km/h 91% 0.00 mm 149.61 W/m2
15:44 27.0 °C 25.0 °C 1011.0 hPa SSW 7 km/h 8 km/h 91% 0.00 mm 147.05 W/m2
15:49 27.0 °C 25.0 °C 1011.1 hPa South 8 km/h 8 km/h 90% 0.00 mm 140.44 W/m2
15:54 27.0 °C 25.0 °C 1010.9 hPa SSW 6 km/h 8 km/h 90% 0.00 mm 142.64 W/m2
15:59 27.0 °C 25.0 °C 1010.9 hPa SSW 7 km/h 8 km/h 89% 0.00 mm 154.39 W/m2
16:04 27.0 °C 25.0 °C 1010.8 hPa SW 3 km/h 4 km/h 89% 0.00 mm 159.16 W/m2
16:09 28.0 °C 25.0 °C 1010.9 hPa WSW 4 km/h 4 km/h 87% 0.00 mm 160.02 W/m2
16:14 28.0 °C 25.0 °C 1010.8 hPa WSW 4 km/h 4 km/h 86% 0.00 mm 161.36 W/m2
16:19 28.0 °C 25.0 °C 1010.9 hPa SW 6 km/h 8 km/h 86% 0.00 mm 162.22 W/m2
16:24 28.0 °C 25.0 °C 1010.9 hPa SW 4 km/h 4 km/h 85% 0.00 mm 137.51 W/m2
16:29 28.0 °C 25.0 °C 1011.1 hPa West 6 km/h 8 km/h 84% 0.00 mm 146.19 W/m2
16:34 28.0 °C 25.0 °C 1011.1 hPa NW 5 km/h 8 km/h 82% 0.00 mm 140.07 W/m2
16:39 28.0 °C 25.0 °C 1011.3 hPa NNW 6 km/h 8 km/h 83% 0.00 mm 129.68 W/m2
16:44 28.0 °C 25.0 °C 1011.2 hPa NNW 10 km/h 12 km/h 82% 0.00 mm 132.24 W/m2
16:49 28.0 °C 25.0 °C 1011.1 hPa NW 8 km/h 8 km/h 82% 0.00 mm 129.68 W/m2
16:54 29.0 °C 25.0 °C 1011.3 hPa NW 6 km/h 8 km/h 82% 0.00 mm 88.82 W/m2
16:59 29.0 °C 25.0 °C 1011.3 hPa NW 8 km/h 8 km/h 82% 0.00 mm 62.88 W/m2
17:04 29.0 °C 25.0 °C 1011.3 hPa NW 4 km/h 4 km/h 81% 0.00 mm 78.05 W/m2
17:09 29.0 °C 25.0 °C 1011.1 hPa Calm     82% 0.00 mm 91.51 W/m2
17:14 29.0 °C 25.0 °C 1011.3 hPa NW 5 km/h 8 km/h 82% 0.00 mm 88.45 W/m2
17:19 29.0 °C 25.0 °C 1011.3 hPa NW 2 km/h 4 km/h 81% 0.00 mm 74.50 W/m2
17:24 29.0 °C 25.0 °C 1011.7 hPa NW 3 km/h 4 km/h 80% 0.00 mm 68.02 W/m2
17:29 29.0 °C 25.0 °C 1011.7 hPa WSW 9 km/h 12 km/h 81% 0.00 mm 48.93 W/m2
17:34 29.0 °C 25.0 °C 1011.5 hPa WSW 5 km/h 8 km/h 81% 0.00 mm 46.73 W/m2
17:39 29.0 °C 25.0 °C 1011.4 hPa SW 5 km/h 8 km/h 81% 0.00 mm 46.73 W/m2
17:44 29.0 °C 25.0 °C 1011.2 hPa SW 5 km/h 8 km/h 82% 0.00 mm 42.45 W/m2
17:49 29.0 °C 25.0 °C 1011.5 hPa SW 6 km/h 8 km/h 81% 0.00 mm 34.25 W/m2
17:54 28.0 °C 25.0 °C 1011.4 hPa SW 4 km/h 4 km/h 82% 0.00 mm 25.56 W/m2
17:59 28.0 °C 25.0 °C 1011.8 hPa SW 4 km/h 4 km/h 83% 0.00 mm 18.11 W/m2
18:04 28.0 °C 25.0 °C 1011.8 hPa Calm     83% 0.00 mm 12.48 W/m2
18:09 29.0 °C 25.0 °C 1012.0 hPa SW 2 km/h 4 km/h 82% 0.00 mm 6.85 W/m2
18:14 29.0 °C 25.0 °C 1012.1 hPa WSW 2 km/h 4 km/h 82% 0.00 mm 3.79 W/m2
18:19 29.0 °C 25.0 °C 1012.0 hPa ENE 5 km/h 8 km/h 82% 0.00 mm 1.71 W/m2
18:24 29.0 °C 25.0 °C 1012.0 hPa ESE 5 km/h 8 km/h 82% 0.00 mm 1.22 W/m2
18:29 29.0 °C 25.0 °C 1012.1 hPa East 4 km/h 8 km/h 82% 0.00 mm 0.36 W/m2
18:34 28.0 °C 25.0 °C 1012.1 hPa East 4 km/h 8 km/h 82% 0.00 mm 0.00 W/m2
18:39 28.0 °C 25.0 °C 1012.2 hPa ENE 5 km/h 8 km/h 81% 0.00 mm 0.00 W/m2
18:44 28.0 °C 25.0 °C 1012.4 hPa NE 5 km/h 8 km/h 81% 0.00 mm 0.00 W/m2
18:49 28.0 °C 25.0 °C 1012.5 hPa ENE 4 km/h 8 km/h 81% 0.00 mm 0.00 W/m2
18:54 28.0 °C 25.0 °C 1012.4 hPa NE 8 km/h 12 km/h 81% 0.00 mm 0.00 W/m2
18:59 28.0 °C 25.0 °C 1012.4 hPa ESE 9 km/h 16 km/h 82% 0.00 mm 0.00 W/m2
19:04 28.0 °C 25.0 °C 1012.7 hPa East 6 km/h 12 km/h 83% 0.00 mm 0.00 W/m2
19:09 28.0 °C 25.0 °C 1012.6 hPa NE 9 km/h 12 km/h 85% 0.00 mm 0.00 W/m2
19:14 28.0 °C 25.0 °C 1012.6 hPa NE 5 km/h 8 km/h 85% 0.00 mm 0.00 W/m2
19:19 28.0 °C 25.0 °C 1012.8 hPa ENE 4 km/h 8 km/h 86% 0.00 mm 0.00 W/m2
19:24 28.0 °C 25.0 °C 1012.6 hPa ENE 9 km/h 12 km/h 87% 1.80 mm 0.00 W/m2
19:29 28.0 °C 25.0 °C 1012.7 hPa NE 6 km/h 8 km/h 89% 1.80 mm 0.00 W/m2
19:34 27.0 °C 25.0 °C 1012.6 hPa NE 10 km/h 12 km/h 89% 1.80 mm 0.00 W/m2
19:39 27.0 °C 25.0 °C 1012.3 hPa NNE 10 km/h 16 km/h 90% 1.80 mm 0.00 W/m2
19:44 27.0 °C 25.0 °C 1012.4 hPa NE 15 km/h 24 km/h 90% 1.80 mm 0.00 W/m2
19:49 27.0 °C 25.0 °C 1012.4 hPa NNE 19 km/h 24 km/h 91% 1.80 mm 0.00 W/m2
19:54 26.0 °C 25.0 °C 1012.4 hPa NNE 12 km/h 20 km/h 91% 1.80 mm 0.00 W/m2
19:59 26.0 °C 25.0 °C 1012.4 hPa NNE 14 km/h 16 km/h 91% 3.61 mm 0.00 W/m2
20:04 26.0 °C 24.0 °C 1012.5 hPa NNE 17 km/h 20 km/h 89% 3.61 mm 0.00 W/m2
20:09 26.0 °C 24.0 °C 1012.6 hPa NNE 18 km/h 24 km/h 90% 3.61 mm 0.00 W/m2
20:14 26.0 °C 24.0 °C 1012.6 hPa NE 15 km/h 16 km/h 89% 3.61 mm 0.00 W/m2
20:19 26.0 °C 24.0 °C 1012.9 hPa NE 10 km/h 16 km/h 90% 3.61 mm 0.00 W/m2
20:24 26.0 °C 24.0 °C 1013.0 hPa NNE 18 km/h 20 km/h 90% 5.41 mm 0.00 W/m2
20:29 26.0 °C 24.0 °C 1013.0 hPa NE 14 km/h 16 km/h 90% 5.41 mm 0.00 W/m2
20:34 26.0 °C 24.0 °C 1013.2 hPa NNE 15 km/h 20 km/h 90% 7.19 mm 0.00 W/m2
20:39 26.0 °C 24.0 °C 1013.1 hPa NE 16 km/h 20 km/h 91% 7.19 mm 0.00 W/m2
20:44 26.0 °C 24.0 °C 1013.4 hPa NNE 18 km/h 20 km/h 91% 7.19 mm 0.00 W/m2
20:49 26.0 °C 24.0 °C 1013.3 hPa NNE 14 km/h 20 km/h 92% 7.19 mm 0.00 W/m2
20:54 26.0 °C 24.0 °C 1013.2 hPa NNE 17 km/h 20 km/h 92% 5.41 mm 0.00 W/m2
20:59 25.0 °C 24.0 °C 1013.2 hPa North 18 km/h 24 km/h 93% 5.41 mm 0.00 W/m2
21:04 25.0 °C 24.0 °C 1013.1 hPa North 12 km/h 16 km/h 93% 5.41 mm 0.00 W/m2
21:07 25.0 °C 24.0 °C 1013.0 hPa NNW 12 km/h 16 km/h 92% 5.41 mm 0.00 W/m2
21:14 25.0 °C 24.0 °C 1013.4 hPa NNE 6 km/h 8 km/h 92% 3.61 mm 0.00 W/m2
21:19 26.0 °C 24.0 °C 1013.8 hPa NE 1 km/h 4 km/h 93% 3.61 mm 0.00 W/m2
21:24 26.0 °C 24.0 °C 1013.9 hPa NE 4 km/h 4 km/h 92% 3.61 mm 0.00 W/m2
21:29 26.0 °C 24.0 °C 1014.1 hPa NE 4 km/h 4 km/h 93% 1.80 mm 0.00 W/m2
21:34 26.0 °C 24.0 °C 1014.2 hPa Calm     93% 3.61 mm 0.00 W/m2
21:39 26.0 °C 24.0 °C 1014.1 hPa Calm     93% 1.80 mm 0.00 W/m2
21:44 26.0 °C 24.0 °C 1014.1 hPa NE 4 km/h 4 km/h 92% 1.80 mm 0.00 W/m2
21:49 26.0 °C 24.0 °C 1014.2 hPa NNE 6 km/h 8 km/h 93% 0.00 mm 0.00 W/m2
21:54 26.0 °C 24.0 °C 1014.2 hPa NE 5 km/h 8 km/h 92% 0.00 mm 0.00 W/m2
21:59 26.0 °C 24.0 °C 1014.0 hPa Calm   4 km/h 90% 0.00 mm 0.00 W/m2
22:04 26.0 °C 24.0 °C 1014.1 hPa Calm   4 km/h 90% 0.00 mm 0.00 W/m2
22:09 26.0 °C 24.0 °C 1014.0 hPa NE 8 km/h 8 km/h 90% 0.00 mm 0.00 W/m2
22:14 26.0 °C 24.0 °C 1014.0 hPa NE 5 km/h 8 km/h 90% 0.00 mm 0.00 W/m2
22:19 26.0 °C 24.0 °C 1014.0 hPa NE 2 km/h 4 km/h 91% 0.00 mm 0.00 W/m2
22:24 25.0 °C 24.0 °C 1014.0 hPa NE 2 km/h 4 km/h 90% 0.00 mm 0.00 W/m2
22:29 26.0 °C 24.0 °C 1014.2 hPa NE 1 km/h 4 km/h 90% 0.00 mm 0.00 W/m2
22:34 26.0 °C 24.0 °C 1014.2 hPa Calm   4 km/h 90% 0.00 mm 0.00 W/m2
22:39 26.0 °C 24.0 °C 1013.9 hPa NE 4 km/h 4 km/h 90% 0.00 mm 0.00 W/m2
22:44 26.0 °C 24.0 °C 1013.9 hPa NNE 4 km/h 4 km/h 90% 0.00 mm 0.00 W/m2
22:49 26.0 °C 24.0 °C 1014.0 hPa North 5 km/h 8 km/h 90% 0.00 mm 0.00 W/m2
22:51 26.0 °C 24.0 °C 1013.8 hPa NNW 3 km/h 4 km/h 90% 0.00 mm 0.00 W/m2
22:59 26.0 °C 24.0 °C 1013.7 hPa NNW 6 km/h 8 km/h 91% 0.00 mm 0.00 W/m2
23:04 26.0 °C 24.0 °C 1013.7 hPa NNW 8 km/h 8 km/h 91% 0.00 mm 0.00 W/m2
23:09 26.0 °C 24.0 °C 1013.5 hPa NW 10 km/h 12 km/h 91% 0.00 mm 0.00 W/m2
23:14 26.0 °C 24.0 °C 1013.5 hPa NNW 16 km/h 16 km/h 90% 0.00 mm 0.00 W/m2
23:19 26.0 °C 24.0 °C 1013.2 hPa NNW 16 km/h 16 km/h 90% 0.00 mm 0.00 W/m2
23:24 26.0 °C 24.0 °C 1013.2 hPa NNW 14 km/h 16 km/h 90% 0.00 mm 0.00 W/m2
23:29 26.0 °C 24.0 °C 1013.2 hPa NNW 9 km/h 16 km/h 91% 0.00 mm 0.00 W/m2
23:34 26.0 °C 24.0 °C 1013.2 hPa NNW 9 km/h 12 km/h 91% 0.00 mm 0.00 W/m2
23:39 26.0 °C 24.0 °C 1013.0 hPa NW 8 km/h 8 km/h 91% 0.00 mm 0.00 W/m2
23:44 26.0 °C 24.0 °C 1013.0 hPa NW 5 km/h 8 km/h 90% 0.00 mm 0.00 W/m2
23:49 26.0 °C 24.0 °C 1012.9 hPa Calm     90% 0.00 mm 0.00 W/m2
23:54 26.0 °C 24.0 °C 1012.8 hPa NW 5 km/h 8 km/h 90% 0.00 mm 0.00 W/m2
23:59 26.0 °C 24.0 °C 1012.9 hPa NW 4 km/h 4 km/h 90% 0.00 mm 0.00 W/m2
PIMOHWEATHER Philippines
Compliments of Weather Underground - 2 mb